[[{"header":{"parameterUnit":"m.s-1","parameterCategory":1,"la1":30.2992,"la2":30.254,"lo1":-89.0895,"lo2":-89.0443,"dy":0.0025,"dx":0.0025,"nx":19,"ny":19,"refTime":"2026-03-23T21:00:00:Z","depth":0,"parameterNumber":2,"parameterNumberName":"U-component_of_WINDS"},"data":[0,0,0,-3.7918,-3.7918,-3.7884,-3.7884,-3.7887,-3.7887,0,0,0,0,0,0,0,0,0,0,0,-3.7954,-3.7955,-3.7918,-3.7918,-3.7884,-3.7884,-3.7887,-3.7887,0,0,0,0,0,0,0,0,0,0,0,-3.7954,-3.7955,-3.7956,-3.7918,-3.7884,-3.7884,-3.7887,-3.7896,0,0,0,0,0,0,0,0,0,0,-3.7921,-3.7979,-3.7955,-3.7956,-3.7918,-3.7884,-3.7884,-3.7896,-3.7895,-3.7921,0,-3.795,0,-3.7919,-3.789,-3.7891,0,0,0,-3.7898,-3.798,-3.7947,-3.7956,-3.7918,-3.7884,-3.7894,-3.7895,-3.7895,-3.7922,-3.795,-3.7949,-3.7919,-3.7891,-3.7891,-3.8104,-3.8106,0,0,-3.79,-3.7962,-3.7948,-3.7948,-3.7955,-3.7895,-3.7893,-3.7894,-3.793,-3.795,-3.7948,-3.7919,-3.7891,-3.7891,-3.8102,-3.8105,0,0,0,-3.7919,-3.7965,-3.793,-3.7949,-3.794,-3.7895,-3.7892,-3.7929,-3.7913,-3.7948,-3.7919,-3.7891,-3.7892,-3.81,-3.8103,-3.8257,0,0,0,-3.7919,-3.7975,-3.7932,-3.797,-3.7941,-3.7934,-3.7929,-3.7913,-3.7911,-3.7919,-3.7891,-3.7892,-3.8098,-3.8102,-3.8248,-3.8319,0,0,0,-3.7947,-3.7978,-3.7982,-3.7974,-3.7961,-3.7932,-3.7915,-3.7911,-3.7895,-3.7891,-3.7892,-3.8096,-3.8101,-3.824,-3.8305,-3.8393,0,0,0,-3.7996,-3.8119,-3.7986,-3.8113,-3.7962,-3.8028,-3.7915,-3.7961,-3.7976,-3.7891,-3.8098,-3.8103,-3.8237,-3.8297,-3.8385,-3.8477,-3.8521,0,0,-3.8186,-3.8144,-3.8214,-3.8094,-3.8199,-3.8028,-3.8157,-3.8111,-3.8055,-3.8091,-3.8096,-3.8251,-3.8304,-3.8391,-3.875,-3.8786,0,0,0,-3.8295,-3.8346,-3.8361,-3.8378,-3.8347,-3.8326,-3.8255,-3.8239,-3.8267,-3.8086,-3.8305,-3.8335,-3.8383,-3.8424,-3.8454,-3.8492,-3.8125,-3.8124,-3.8124,-3.8652,-3.8573,-3.8684,-3.8603,-3.8621,-3.8548,-3.8556,-3.8522,-3.8436,-3.8491,-3.85,-3.8727,-3.8778,-3.88,-3.884,-3.8543,-3.8544,-3.8544,-3.8545,-3.8922,-3.8982,-3.8869,-3.8935,-3.8853,-3.8908,-3.8845,-3.8783,-3.8824,-3.8713,-3.8751,-3.8635,-3.8842,-3.8873,-3.8555,-3.8554,-3.8552,-3.8551,-3.855,-3.9145,-3.916,-3.9139,-3.9157,-3.9181,-3.9095,-3.914,-3.9064,-3.8992,-3.9031,-3.9033,-3.903,-3.9017,-3.9038,-3.9038,-3.9039,-3.904,-3.904,-3.9041,-3.9385,-3.9356,-3.9402,-3.9383,-3.9384,-3.9378,-3.9309,-3.9309,-3.9291,-3.9231,-3.9231,-3.9142,-3.8877,-3.8811,-3.9053,-3.9051,-3.9049,-3.9048,-3.9047,-3.9685,-3.9605,-3.9677,-3.968,-3.9651,-3.9681,-3.9584,-3.9593,-3.9583,-3.9608,-3.9512,-3.9329,-3.928,-3.9255,-3.92,-3.9528,-3.9528,-3.9528,-3.9528,-3.9872,-3.9841,-3.9898,-3.9908,-3.9908,-3.9829,-3.9916,-3.9866,-3.9801,-3.9791,-3.9733,-3.9654,-3.9633,-3.9597,-3.9565,-3.9512,-3.9912,-3.9912,-3.9913,-4.0052,-4.0018,-4.0105,-4.004,-4.0014,-3.9993,-4.0073,-4.009,-4.0001,-3.9927,-3.9781,-3.9765,-3.9637,-3.9599,-3.9519,-3.9471,-3.9373,0,0]},{"header":{"parameterUnit":"m.s-1","parameterCategory":1,"la1":30.2992,"la2":30.254,"lo1":-89.0895,"lo2":-89.0443,"dy":0.0025,"dx":0.0025,"nx":19,"ny":19,"refTime":"2026-03-23T21:00:00:Z","depth":0,"parameterNumber":3,"parameterNumberName":"V-component_of_WINDS"},"data":[0,0,0,2.4209,2.4209,2.42,2.42,2.4176,2.4176,0,0,0,0,0,0,0,0,0,0,0,2.4205,2.4205,2.4209,2.4209,2.42,2.42,2.4176,2.4176,0,0,0,0,0,0,0,0,0,0,0,2.4205,2.4205,2.4205,2.4209,2.42,2.42,2.4176,2.4187,0,0,0,0,0,0,0,0,0,0,2.4197,2.4188,2.4205,2.4205,2.4209,2.42,2.42,2.4188,2.4186,2.4175,0,2.4165,0,2.417,2.4173,2.4173,0,0,0,2.4213,2.4189,2.4193,2.4204,2.4209,2.42,2.4205,2.4187,2.4185,2.4173,2.4164,2.4164,2.417,2.4173,2.4173,2.41,2.4099,0,0,2.4213,2.4199,2.4194,2.4191,2.4194,2.4206,2.4205,2.4186,2.4175,2.4164,2.4163,2.4169,2.4173,2.4173,2.41,2.41,0,0,0,2.4212,2.4199,2.4204,2.4192,2.4192,2.4205,2.4205,2.4176,2.4179,2.4163,2.4169,2.4173,2.4172,2.4101,2.41,2.4061,0,0,0,2.4212,2.4199,2.4204,2.4196,2.4192,2.4184,2.4194,2.418,2.4178,2.4169,2.4173,2.4172,2.4102,2.4101,2.4063,2.4044,0,0,0,2.4208,2.4198,2.4195,2.4195,2.4191,2.4185,2.4187,2.418,2.4182,2.4173,2.4172,2.4102,2.4101,2.4066,2.4047,2.402,0,0,0,2.4198,2.4159,2.4194,2.4153,2.4191,2.4162,2.4187,2.4165,2.4154,2.4173,2.4102,2.41,2.4066,2.4049,2.4023,2.3994,2.3982,0,0,2.414,2.4151,2.4128,2.416,2.4121,2.4164,2.4119,2.412,2.4131,2.4109,2.4108,2.4063,2.4047,2.4021,2.3919,2.3909,0,0,0,2.4105,2.4088,2.4081,2.407,2.4073,2.4073,2.4083,2.4084,2.4067,2.4118,2.4047,2.4038,2.4023,2.401,2.4002,2.3989,2.4094,2.4094,2.4095,2.4,2.4019,2.3982,2.4001,2.3991,2.4004,2.3997,2.4,2.4019,2.4003,2.3995,2.3932,2.3916,2.391,2.3897,2.3984,2.3984,2.3983,2.3983,2.3916,2.3894,2.3926,2.3901,2.3921,2.3899,2.3911,2.3926,2.3908,2.3938,2.3926,2.3955,2.3898,2.3888,2.3981,2.3981,2.3981,2.3982,2.3982,2.3848,2.3841,2.3845,2.3835,2.3824,2.3845,2.3827,2.3846,2.3863,2.3851,2.3845,2.3846,2.3848,2.3848,2.3848,2.3847,2.3847,2.3847,2.3847,2.3774,2.3781,2.3765,2.3767,2.3764,2.3763,2.3779,2.3776,2.3777,2.3792,2.3792,2.3812,2.3891,2.3909,2.3843,2.3844,2.3844,2.3845,2.3845,2.3678,2.3704,2.3679,2.3676,2.3681,2.367,2.3697,2.369,2.369,2.3681,2.3706,2.3762,2.3773,2.378,2.3794,2.3703,2.3703,2.3703,2.3703,2.3619,2.3628,2.3608,2.3604,2.3601,2.3624,2.3594,2.3607,2.3622,2.3624,2.3641,2.3663,2.367,2.3677,2.3686,2.37,2.3587,2.3587,2.3587,2.356,2.3571,2.3542,2.3562,2.3568,2.3572,2.3545,2.3537,2.3561,2.3582,2.3625,2.363,2.3667,2.3678,2.3696,2.371,2.3736,0,0]}]]